Location: Newark
(42.9260°N, 89.3850°W)
Time: 08:27:24
(UTC+00:00)

STARLINK 1045 - Pass Details

Date: 14 December 2019
Orbit: 549 x 550 km, 53.0° (Epoch: 27 January)

Event Time Altitude Azimuth Distance (km) Brightness Sun altitude
Exits shadow 09:58:52 11° 120° (ESE) 1,784 6.8 -36.0°
Drops below altitude 10° 09:59:02 10° 120° (ESE) 1,849 6.9 -35.9°
Enters shadow 11:00:45 -59° 318° (NW) 11,609 10.3 -24.7°
